星链-33582 (STARLINK-33582)

导读

STARLINK-33582是美国SpaceX公司星链(Starlink)星座的卫星,于2025年1月21日在美国发射升空。作为星链网络的组成部分,它运行在近地轨道,为全球提供高速卫星互联网接入服务,重点覆盖偏远地区与地面网络无法通达区域,助力实现全球无缝网络覆盖,推动太空通信技术发展与商业航天应用落地。

基本信息
目录编号:
62783
目录名称:
STARLINK-33582
国际标识:
2025-015AB
轨道中心:
EARTH
卫星名称:
星链-33582
卫星全名:
星链-33582 (STARLINK-33582)
卫星状态:
在轨 (已飞行509 天)
发射日期:
2025-01-21 UTC
国别 :
美国 (US)
星等 :
--
轨道信息
数据来源 国际轨道数据
星历时间: 2026-06-13T20:26:41+0800
19小时前
查看轨道信息
半长轴: 6823.193km
偏心率: 0.0006969
轨道倾角: 53.156°
近地点辐角 330.842°
升交点赤经 234.449°
平近点角 29.220°
近地点: 440.3km
远地点: 449.812km
周期: 93.485分钟
每日圈数: 15.403567
详细信息
固有亮度:
5
最大亮度:
2.5
卫星平台:
Starlink V1.0
覆盖范围:
全球
运营商:
太空探索技术公司
运营商所在国:
美国
制造商(研发单位):
太空探索技术公司
制造商所在国:
美国
使用方式:
暂无
卫星简介
Starlink 计划是 SpaceX 推出的全球卫星互联网项目,通过发射低轨道卫星,为全球尤其是偏远地区提供高速、低延迟的互联网服务。自 2019 年起,Starlink 已部署数千颗卫星,旨在缩小全球数字鸿沟,推动互联网普及。该项目还为军事、航空等行业提供通信支持,带来广泛经济效益。
2D轨道图
3D轨道图
轨道高度分析图
轨道倾角分析图
轨道综合分析图
查看轨道综合分析图